Paganella, Italy

1:37 PM CEST on June 27, 2017 (GMT +0200)
Paganella

Weather History for LIVP - May, 2012

Change the Weather History Date:

Monday, May 14, 2012

  Actual Average Record
Temperature  
Mean Temperature 33 °F -  
Max Temperature 43 °F 48 °F 59 °F (1997)
Min Temperature 23 °F 36 °F 23 °F (2012)
Degree Days  
Heating Degree Days 32    
Moisture  
Dew Point 17 °F    
Average Humidity 50    
Maximum Humidity 80    
Minimum Humidity 13    
Precipitation  
Precipitation 0.00 in 0.10 in - ()
Sea Level Pressure  
Sea Level Pressure 29.93 in    
Wind  
Wind Speed 13 mph ()    
Max Wind Speed 26 mph    
Max Gust Speed 29 mph    
Averages and records for this station are not official NWS values.
T = Trace of Precipitation, MM = Missing Value Source: Averaged Metar Reports

Daily Weather History Graph

Daily Weather History Graph

Search for Another Location

Airport or City:

Trip Planner

Search our weather history database for the weather conditions in past years. The results will help you decide how hot, cold, wet, or windy it might be!

Date:

Astronomy

May. 14, 2012 Rise Set
Actual Time 5:44 AM CEST 8:41 PM CEST
Civil Twilight 5:09 AM CEST 9:16 PM CEST
Nautical Twilight 4:24 AM CEST 10:01 PM CEST
Astronomical Twilight 3:30 AM CEST 10:55 PM CEST
Moon 2:31 AM CEST (5/14) 2:26 PM CEST (5/14)
Length of Visible Light 16h 07m
Length of Day
14h 56m
Waning Crescent, 35% of the Moon is Illuminated
May 14
Waning Crescent
May 21
New
May 28
First Quarter
Jun 4
Full
Jun 11
Last Quarter

Hourly Weather History & Observations

Time (CEST) Temp. Windchill Dew Point Humidity Pressure Visibility Wind Dir Wind Speed Gust Speed Precip Events Conditions
12:55 AM 28.4 °F 16.6 °F 23.0 °F 80% 30.01 in - North 16.1 mph - N/A   Clear
1:55 AM 26.6 °F 14.7 °F 21.2 °F 80% 30.01 in - North 15.0 mph - N/A   Clear
2:00 AM 27 °F - 21 °F 70%  in 31 mi North 15.0 mph - -  
2:55 AM 26.6 °F 13.4 °F 19.4 °F 74% 29.98 in - North 18.4 mph - N/A   Clear
3:55 AM 24.8 °F 9.6 °F 17.6 °F 74% 29.98 in - NW 23.0 mph - N/A   Clear
4:55 AM 24.8 °F 8.7 °F 15.8 °F 69% 29.92 in - North 26.5 mph - N/A   Clear
5:00 AM 24 °F - 16 °F 61%  in 31 mi North 26.5 mph - -  
5:55 AM 24.8 °F 10.0 °F 15.8 °F 69% 29.92 in - North 21.9 mph - N/A   Clear
6:55 AM 24.8 °F 11.9 °F 14.0 °F 64% 29.92 in - North 16.1 mph - N/A   Clear
7:55 AM 24.8 °F 12.9 °F 15.8 °F 69% 29.95 in - North 13.8 mph - N/A   Clear
8:00 AM 26 °F - 15 °F 51%  in 37 mi North 13.8 mph - -  
8:55 AM 26.6 °F 14.7 °F 15.8 °F 64% 29.95 in - NNW 15.0 mph - N/A   Clear
10:55 AM 30.2 °F 19.3 °F 12.2 °F 47% 29.95 in - North 15.0 mph 26.5 mph N/A   Clear
11:00 AM 31 °F - 12 °F 31%  in 44 mi North 15.0 mph - -  
11:55 AM 33.8 °F 23.5 °F 6.8 °F 32% 29.95 in - North 16.1 mph 28.8 mph N/A   Clear
12:55 PM 37.4 °F 29.3 °F 8.6 °F 30% 29.95 in - North 12.7 mph 26.5 mph N/A   Clear
1:55 PM 39.2 °F 33.6 °F 15.8 °F 39% 29.95 in - North 8.1 mph - N/A   Clear
2:00 PM 40 °F - 15 °F 23%  in 37 mi North 8.1 mph - -  
2:55 PM 41.0 °F 35.2 °F 15.8 °F 36% 29.92 in - North 9.2 mph - N/A   Clear
3:55 PM 41.0 °F 36.4 °F 8.6 °F 26% 29.92 in - NNE 6.9 mph - N/A   Clear
4:55 PM 41.0 °F 35.2 °F 8.6 °F 26% 29.92 in - NNE 9.2 mph 20.7 mph N/A   Clear
5:00 PM 42 °F - 8 °F 13%  in 37 mi NNE 9.2 mph - -  
5:55 PM 42.8 °F 38.6 °F 14.0 °F 31% 29.89 in - North 6.9 mph - N/A   Clear
6:55 PM 42.8 °F 39.3 °F 17.6 °F 36% 29.89 in - NNW 5.8 mph - N/A   Clear
7:55 PM 42.8 °F 40.1 °F 23.0 °F 46% 29.89 in - WNW 4.6 mph - N/A   Clear
8:00 PM 43 °F - 23 °F 32%  in 37 mi WNW 4.6 mph - -  
8:55 PM 39.2 °F 37.0 °F 19.4 °F 45% 29.89 in - Variable 3.5 mph - N/A   Clear
9:55 PM 37.4 °F 33.8 °F 23.0 °F 56% 29.92 in - NNW 4.6 mph - N/A   Clear
10:55 PM 35.6 °F 31.7 °F 26.6 °F 70% 29.89 in - NNE 4.6 mph - N/A   Clear
11:00 PM 36 °F - 26 °F 56%  in 25 mi NNE 4.6 mph - -  
11:55 PM 35.6 °F 29.9 °F 24.8 °F 65% 29.89 in - North 6.9 mph - N/A   Clear